| time (UTC) | temp C | wind direction | speed KPH | gust KPH | rain 1hr cm | rain 24hr cm | rain mn cm | humidity % | barometer mb |
| 20260507104504 | -2 | 247 | 0.0 | 8.0 | 0.00 | 0.00 | 0.00 | 85 | 1009.8 |
| 20260507104005 | -1 | 313 | 0.0 | 3.2 | 0.00 | 0.00 | 0.00 | 82 | 1009.7 |
| 20260507103503 | -1 | 311 | 1.6 | 6.4 | 0.00 | 0.00 | 0.00 | 83 | 1009.7 |
| 20260507102503 | -1 | 306 | 1.6 | 3.2 | 0.00 | 0.00 | 0.00 | 80 | 1009.8 |
| 20260507102007 | -1 | 306 | 0.0 | 3.2 | 0.00 | 0.00 | 0.00 | 76 | 1009.8 |
| 20260507101503 | -1 | 308 | 0.0 | 1.6 | 0.00 | 0.00 | 0.00 | 79 | 1009.7 |
| 20260507100005 | -1 | 307 | 1.6 | 3.2 | 0.00 | 0.00 | 0.00 | 82 | 1009.5 |
| 20260507095503 | -1 | 296 | 1.6 | 6.4 | 0.00 | 0.00 | 0.00 | 81 | 1009.7 |
| 20260507095005 | -1 | 281 | 1.6 | 6.4 | 0.00 | 0.00 | 0.00 | 83 | 1009.7 |
| 20260507094503 | -1 | 275 | 1.6 | 3.2 | 0.00 | 0.00 | 0.00 | 82 | 1009.6 |
| 20260507094005 | -1 | 266 | 1.6 | 3.2 | 0.00 | 0.00 | 0.00 | 80 | 1009.5 |
| 20260507093005 | 0 | 212 | 0.0 | 3.2 | 0.00 | 0.00 | 0.00 | 77 | 1009.6 |
| 20260507092503 | 0 | 212 | 0.0 | 3.2 | 0.00 | 0.00 | 0.00 | 80 | 1009.7 |
| 20260507092005 | 0 | 0 | 0.0 | 0.0 | 0.00 | 0.00 | 0.00 | 79 | 1009.8 |
| 20260507091503 | 0 | 0 | 0.0 | 0.0 | 0.00 | 0.00 | 0.00 | 76 | 1009.7 |
| 20260507091005 | 0 | 0 | 0.0 | 0.0 | 0.00 | 0.00 | 0.00 | 76 | 1009.8 |
| 20260507090503 | 0 | 0 | 0.0 | 0.0 | 0.00 | 0.00 | 0.00 | 77 | 1009.8 |
| 20260507090006 | 0 | 0 | 0.0 | 0.0 | 0.00 | 0.00 | 0.00 | 75 | 1009.7 |
| 20260507085503 | 0 | 0 | 0.0 | 0.0 | 0.00 | 0.00 | 0.00 | 75 | 1009.7 |
| 20260507085005 | 0 | 0 | 0.0 | 0.0 | 0.00 | 0.00 | 0.00 | 77 | 1009.7 |
| 20260507084005 | 0 | 0 | 0.0 | 0.0 | 0.00 | 0.00 | 0.00 | 80 | 1009.8 |
| 20260507083503 | 0 | 0 | 0.0 | 0.0 | 0.00 | 0.00 | 0.00 | 75 | 1009.8 |
| 20260507083005 | 0 | 270 | 0.0 | 1.6 | 0.00 | 0.00 | 0.00 | 72 | 1009.9 |
| 20260507082005 | 0 | 270 | 0.0 | 1.6 | 0.00 | 0.00 | 0.00 | 72 | 1009.8 |
| 20260507081005 | 0 | 0 | 0.0 | 0.0 | 0.00 | 0.00 | 0.00 | 72 | 1010.0 |
| 20260507080503 | 0 | 272 | 1.6 | 3.2 | 0.00 | 0.00 | 0.00 | 72 | 1010.0 |
| 20260507075503 | 0 | 319 | 1.6 | 6.4 | 0.00 | 0.00 | 0.00 | 75 | 1010.1 |
| 20260507075005 | 0 | 334 | 1.6 | 8.0 | 0.00 | 0.00 | 0.00 | 73 | 1010.2 |
| 20260507072504 | 1 | 75 | 0.0 | 3.2 | 0.00 | 0.00 | 0.00 | 70 | 1010.3 |
| 20260507072006 | 0 | 75 | 0.0 | 1.6 | 0.00 | 0.00 | 0.00 | 71 | 1010.4 |
| 20260507071504 | 0 | 74 | 0.0 | 1.6 | 0.00 | 0.00 | 0.00 | 70 | 1010.5 |
| 20260507071005 | 1 | 75 | 0.0 | 3.2 | 0.00 | 0.00 | 0.00 | 71 | 1010.4 |
| 20260507070503 | 0 | 74 | 1.6 | 3.2 | 0.00 | 0.00 | 0.00 | 71 | 1010.5 |
| 20260507065503 | 0 | 75 | 0.0 | 3.2 | 0.00 | 0.00 | 0.00 | 75 | 1010.7 |
| 20260507065005 | 1 | 75 | 0.0 | 3.2 | 0.00 | 0.00 | 0.00 | 67 | 1010.7 |
| 20260507064504 | 1 | 74 | 0.0 | 3.2 | 0.00 | 0.00 | 0.00 | 69 | 1010.8 |
| 20260507064005 | 1 | 75 | 0.0 | 3.2 | 0.00 | 0.00 | 0.00 | 67 | 1010.8 |
| 20260507063503 | 1 | 75 | 0.0 | 3.2 | 0.00 | 0.00 | 0.00 | 69 | 1010.8 |
| 20260507063005 | 1 | 74 | 0.0 | 1.6 | 0.00 | 0.00 | 0.00 | 69 | 1010.9 |
| 20260507061504 | 1 | 0 | 0.0 | 0.0 | 0.00 | 0.00 | 0.00 | 69 | 1011.2 |
| 20260507061005 | 1 | 0 | 0.0 | 0.0 | 0.00 | 0.00 | 0.00 | 67 | 1011.3 |
| 20260507060504 | 1 | 0 | 0.0 | 0.0 | 0.00 | 0.00 | 0.00 | 71 | 1011.2 |
| 20260507055504 | 1 | 0 | 0.0 | 0.0 | 0.00 | 0.00 | 0.00 | 66 | 1011.4 |
| 20260507055005 | 1 | 0 | 0.0 | 0.0 | 0.00 | 0.00 | 0.00 | 70 | 1011.5 |
| 20260507054504 | 2 | 0 | 0.0 | 0.0 | 0.00 | 0.00 | 0.00 | 69 | 1011.5 |
| 20260507054005 | 1 | 0 | 0.0 | 0.0 | 0.00 | 0.00 | 0.00 | 71 | 1011.6 |
| 20260507053504 | 1 | 0 | 0.0 | 0.0 | 0.00 | 0.00 | 0.00 | 72 | 1011.8 |
| 20260507053005 | 1 | 0 | 0.0 | 0.0 | 0.00 | 0.00 | 0.00 | 73 | 1011.8 |
| 20260507052504 | 2 | 74 | 0.0 | 1.6 | 0.00 | 0.00 | 0.00 | 73 | 1012.0 |
| 20260507052004 | 2 | 74 | 0.0 | 1.6 | 0.00 | 0.00 | 0.00 | 73 | 1012.1 |
| 20260507051504 | 2 | 74 | 0.0 | 1.6 | 0.00 | 0.00 | 0.00 | 73 | 1012.0 |
| 20260507050504 | 2 | 74 | 0.0 | 1.6 | 0.00 | 0.00 | 0.00 | 72 | 1012.1 |
| 20260507050006 | 2 | 74 | 0.0 | 1.6 | 0.00 | 0.00 | 0.00 | 70 | 1012.2 |
| 20260507045504 | 2 | 74 | 0.0 | 1.6 | 0.00 | 0.00 | 0.00 | 71 | 1012.2 |
| 20260507045005 | 3 | 74 | 0.0 | 1.6 | 0.00 | 0.00 | 0.00 | 63 | 1012.3 |
| 20260507044503 | 2 | 0 | 0.0 | 0.0 | 0.00 | 0.00 | 0.00 | 65 | 1012.3 |
| 20260507044005 | 2 | 0 | 0.0 | 0.0 | 0.00 | 0.00 | 0.00 | 66 | 1012.4 |
| 20260507042004 | 2 | 75 | 0.0 | 1.6 | 0.00 | 0.00 | 0.00 | 64 | 1012.6 |
| 20260507041504 | 3 | 74 | 0.0 | 1.6 | 0.00 | 0.00 | 0.00 | 58 | 1012.7 |
| 20260507040503 | 4 | 74 | 0.0 | 1.6 | 0.00 | 0.00 | 0.00 | 56 | 1012.9 |
| 20260507040005 | 4 | 74 | 0.0 | 1.6 | 0.00 | 0.00 | 0.00 | 54 | 1012.9 |
| 20260507035503 | 4 | 74 | 0.0 | 1.6 | 0.00 | 0.00 | 0.00 | 55 | 1013.0 |
| 20260507035005 | 4 | 0 | 0.0 | 0.0 | 0.00 | 0.00 | 0.00 | 54 | 1013.0 |
| 20260507034503 | 4 | 0 | 0.0 | 0.0 | 0.00 | 0.00 | 0.00 | 54 | 1013.0 |
| 20260507034005 | 4 | 0 | 0.0 | 0.0 | 0.00 | 0.00 | 0.00 | 55 | 1013.1 |
| 20260507033504 | 4 | 0 | 0.0 | 0.0 | 0.00 | 0.00 | 0.00 | 53 | 1013.1 |
| 20260507033005 | 4 | 0 | 0.0 | 0.0 | 0.00 | 0.00 | 0.00 | 54 | 1013.1 |
| 20260507032503 | 4 | 0 | 0.0 | 0.0 | 0.00 | 0.00 | 0.00 | 52 | 1013.2 |
| 20260507032005 | 4 | 0 | 0.0 | 0.0 | 0.00 | 0.00 | 0.00 | 54 | 1013.2 |
| 20260507031503 | 4 | 0 | 0.0 | 0.0 | 0.00 | 0.00 | 0.00 | 55 | 1013.3 |
| 20260507031005 | 4 | 0 | 0.0 | 0.0 | 0.00 | 0.00 | 0.00 | 54 | 1013.3 |
| 20260507030503 | 5 | 74 | 1.6 | 3.2 | 0.00 | 0.00 | 0.00 | 52 | 1013.2 |
| 20260507030005 | 6 | 53 | 1.6 | 3.2 | 0.00 | 0.00 | 0.00 | 51 | 1013.3 |
| 20260507025504 | 5 | 29 | 1.6 | 3.2 | 0.00 | 0.00 | 0.00 | 51 | 1013.2 |
| 20260507025004 | 6 | 344 | 0.0 | 3.2 | 0.00 | 0.00 | 0.00 | 48 | 1013.3 |
| 20260507024504 | 6 | 0 | 0.0 | 0.0 | 0.00 | 0.00 | 0.00 | 49 | 1013.3 |
| 20260507023503 | 6 | 0 | 0.0 | 0.0 | 0.00 | 0.00 | 0.00 | 45 | 1013.3 |
| 20260507023005 | 6 | 0 | 0.0 | 0.0 | 0.00 | 0.00 | 0.00 | 44 | 1013.2 |
| 20260507022504 | 6 | 0 | 0.0 | 0.0 | 0.00 | 0.00 | 0.00 | 43 | 1013.4 |
| 20260507022004 | 7 | 0 | 0.0 | 0.0 | 0.00 | 0.00 | 0.00 | 42 | 1013.4 |
| 20260507021005 | 7 | 0 | 0.0 | 0.0 | 0.00 | 0.00 | 0.00 | 43 | 1013.5 |
| 20260507020005 | 8 | 342 | 0.0 | 3.2 | 0.00 | 0.00 | 0.00 | 40 | 1013.5 |
| 20260507015504 | 8 | 338 | 1.6 | 6.4 | 0.00 | 0.00 | 0.00 | 37 | 1013.6 |
| 20260507015005 | 8 | 334 | 1.6 | 6.4 | 0.00 | 0.00 | 0.00 | 35 | 1013.6 |
| 20260507014503 | 9 | 327 | 1.6 | 6.4 | 0.00 | 0.00 | 0.00 | 34 | 1013.7 |
| 20260507014005 | 9 | 314 | 4.8 | 9.7 | 0.00 | 0.00 | 0.00 | 34 | 1013.7 |
| 20260507013503 | 10 | 301 | 6.4 | 9.7 | 0.00 | 0.00 | 0.00 | 32 | 1013.7 |
| 20260507013005 | 10 | 298 | 6.4 | 11.3 | 0.00 | 0.00 | 0.00 | 30 | 1013.8 |
| 20260507012503 | 11 | 301 | 6.4 | 11.3 | 0.00 | 0.00 | 0.00 | 29 | 1013.8 |
| 20260507011504 | 11 | 284 | 8.0 | 12.9 | 0.00 | 0.00 | 0.00 | 28 | 1013.8 |
| 20260507011005 | 12 | 283 | 11.3 | 19.3 | 0.00 | 0.00 | 0.00 | 27 | 1013.8 |
| 20260507010503 | 12 | 272 | 12.9 | 19.3 | 0.00 | 0.00 | 0.00 | 25 | 1013.9 |
| 20260507005503 | 12 | 263 | 12.9 | 19.3 | 0.00 | 0.00 | 0.00 | 24 | 1014.0 |
| 20260507004504 | 12 | 273 | 12.9 | 22.5 | 0.00 | 0.00 | 0.00 | 24 | 1014.1 |
| 20260507004005 | 12 | 269 | 8.0 | 17.7 | 0.00 | 0.00 | 0.00 | 25 | 1014.1 |
| 20260507003503 | 12 | 269 | 11.3 | 16.1 | 0.00 | 0.00 | 0.00 | 25 | 1014.2 |
| 20260507001503 | 12 | 276 | 19.3 | 27.4 | 0.00 | 0.00 | 0.00 | 24 | 1014.3 |
| 20260507001005 | 12 | 273 | 19.3 | 29.0 | 0.00 | 0.00 | 0.00 | 24 | 1014.4 |
| 20260507000504 | 12 | 274 | 22.5 | 29.0 | 0.00 | 0.00 | 0.00 | 24 | 1014.5 |
| 20260507000005 | 12 | 274 | 19.3 | 29.0 | 0.00 | 0.00 | 0.00 | 23 | 1014.4 |
| 20260506235503 | 13 | 266 | 14.5 | 24.1 | 0.00 | 0.00 | 0.00 | 23 | 1014.5 |
| 20260506235005 | 13 | 265 | 12.9 | 20.9 | 0.00 | 0.00 | 0.00 | 27 | 1014.5 |
| 20260506234504 | 13 | 274 | 12.9 | 22.5 | 0.00 | 0.00 | 0.00 | 25 | 1014.5 |
| 20260506234004 | 12 | 267 | 17.7 | 24.1 | 0.00 | 0.00 | 0.00 | 25 | 1014.6 |
| 20260506233503 | 12 | 270 | 19.3 | 29.0 | 0.00 | 0.00 | 0.00 | 25 | 1014.8 |
| 20260506233005 | 12 | 267 | 17.7 | 29.0 | 0.00 | 0.00 | 0.00 | 25 | 1014.8 |
| 20260506232504 | 12 | 268 | 14.5 | 24.1 | 0.00 | 0.00 | 0.00 | 27 | 1014.8 |
| 20260506232004 | 13 | 280 | 19.3 | 32.2 | 0.00 | 0.00 | 0.00 | 25 | 1014.9 |
| 20260506231503 | 12 | 276 | 24.1 | 32.2 | 0.00 | 0.00 | 0.00 | 25 | 1015.0 |
| 20260506231005 | 13 | 271 | 22.5 | 32.2 | 0.00 | 0.00 | 0.00 | 25 | 1015.0 |
| 20260506230503 | 13 | 277 | 19.3 | 37.0 | 0.00 | 0.00 | 0.00 | 24 | 1014.9 |
| 20260506230005 | 13 | 273 | 22.5 | 41.8 | 0.00 | 0.00 | 0.00 | 23 | 1015.0 |
| 20260506225503 | 13 | 262 | 22.5 | 41.8 | 0.00 | 0.00 | 0.00 | 24 | 1015.0 |
| 20260506225005 | 13 | 265 | 14.5 | 29.0 | 0.00 | 0.00 | 0.00 | 25 | 1015.0 |
| 20260506224504 | 13 | 268 | 19.3 | 29.0 | 0.00 | 0.00 | 0.00 | 27 | 1015.0 |
| 20260506224004 | 13 | 264 | 19.3 | 29.0 | 0.00 | 0.00 | 0.00 | 24 | 1015.1 |
| 20260506223503 | 13 | 263 | 14.5 | 29.0 | 0.00 | 0.00 | 0.00 | 27 | 1015.0 |
| 20260506223005 | 13 | 247 | 17.7 | 24.1 | 0.00 | 0.00 | 0.00 | 27 | 1015.1 |
| 20260506222503 | 13 | 241 | 14.5 | 24.1 | 0.00 | 0.00 | 0.00 | 25 | 1015.2 |
| 20260506221504 | 12 | 284 | 14.5 | 27.4 | 0.00 | 0.00 | 0.00 | 28 | 1015.3 |
| 20260506221004 | 12 | 273 | 19.3 | 30.6 | 0.00 | 0.00 | 0.00 | 27 | 1015.4 |
| 20260506220503 | 12 | 271 | 17.7 | 30.6 | 0.00 | 0.00 | 0.00 | 27 | 1015.5 |
| 20260506220005 | 13 | 270 | 14.5 | 22.5 | 0.00 | 0.00 | 0.00 | 29 | 1015.5 |
| 20260506215503 | 12 | 263 | 14.5 | 22.5 | 0.00 | 0.00 | 0.00 | 28 | 1015.6 |
| 20260506215006 | 11 | 288 | 17.7 | 32.2 | 0.00 | 0.00 | 0.00 | 27 | 1015.8 |
| 20260506214005 | 12 | 281 | 24.1 | 32.2 | 0.00 | 0.00 | 0.00 | 28 | 1015.8 |
| 20260506213504 | 12 | 277 | 14.5 | 32.2 | 0.00 | 0.00 | 0.00 | 25 | 1015.8 |
| 20260506213005 | 11 | 290 | 11.3 | 19.3 | 0.00 | 0.00 | 0.00 | 28 | 1015.9 |
| 20260506212503 | 11 | 292 | 19.3 | 37.0 | 0.00 | 0.00 | 0.00 | 28 | 1016.0 |
| 20260506212004 | 12 | 285 | 24.1 | 37.0 | 0.00 | 0.00 | 0.00 | 29 | 1016.1 |
| 20260506211503 | 13 | 291 | 19.3 | 30.6 | 0.00 | 0.00 | 0.00 | 27 | 1016.2 |
| 20260506211005 | 12 | 310 | 12.9 | 22.5 | 0.00 | 0.00 | 0.00 | 27 | 1016.2 |
| 20260506210503 | 12 | 281 | 11.3 | 20.9 | 0.00 | 0.00 | 0.00 | 29 | 1016.3 |
| 20260506210005 | 11 | 264 | 12.9 | 19.3 | 0.00 | 0.00 | 0.00 | 33 | 1016.3 |
| 20260506205503 | 11 | 276 | 17.7 | 20.9 | 0.00 | 0.00 | 0.00 | 30 | 1016.6 |
| 20260506205005 | 11 | 285 | 19.3 | 29.0 | 0.00 | 0.00 | 0.00 | 30 | 1016.7 |
| 20260506204503 | 11 | 293 | 19.3 | 32.2 | 0.00 | 0.00 | 0.00 | 28 | 1016.7 |
| 20260506203503 | 12 | 284 | 22.5 | 33.8 | 0.00 | 0.00 | 0.00 | 29 | 1016.8 |
| 20260506203005 | 11 | 269 | 19.3 | 33.8 | 0.00 | 0.00 | 0.00 | 29 | 1016.9 |
| 20260506201503 | 12 | 288 | 11.3 | 30.6 | 0.00 | 0.00 | 0.00 | 28 | 1016.9 |
| 20260506200504 | 11 | 293 | 17.7 | 30.6 | 0.00 | 0.00 | 0.00 | 32 | 1017.2 |
| 20260506200005 | 11 | 280 | 17.7 | 32.2 | 0.00 | 0.00 | 0.00 | 29 | 1017.2 |
| 20260506195503 | 11 | 272 | 17.7 | 32.2 | 0.00 | 0.00 | 0.00 | 29 | 1017.3 |
| 20260506195004 | 10 | 282 | 22.5 | 33.8 | 0.00 | 0.00 | 0.00 | 30 | 1017.3 |
| 20260506194503 | 12 | 292 | 22.5 | 33.8 | 0.00 | 0.00 | 0.00 | 27 | 1017.5 |
| 20260506194005 | 12 | 286 | 19.3 | 24.1 | 0.00 | 0.00 | 0.00 | 30 | 1017.5 |
| 20260506192503 | 11 | 280 | 22.5 | 33.8 | 0.00 | 0.00 | 0.00 | 29 | 1017.7 |
| 20260506192005 | 11 | 278 | 17.7 | 33.8 | 0.00 | 0.00 | 0.00 | 29 | 1017.7 |
| 20260506191503 | 11 | 282 | 14.5 | 29.0 | 0.00 | 0.00 | 0.00 | 30 | 1017.7 |
| 20260506191005 | 11 | 293 | 19.3 | 38.6 | 0.00 | 0.00 | 0.00 | 29 | 1017.9 |
| 20260506190503 | 11 | 290 | 19.3 | 38.6 | 0.00 | 0.00 | 0.00 | 30 | 1017.9 |
| 20260506190005 | 10 | 284 | 14.5 | 24.1 | 0.00 | 0.00 | 0.00 | 32 | 1018.0 |
| 20260506184004 | 10 | 266 | 19.3 | 29.0 | 0.00 | 0.00 | 0.00 | 31 | 1018.3 |
| 20260506183503 | 10 | 268 | 19.3 | 27.4 | 0.00 | 0.00 | 0.00 | 30 | 1018.3 |
| 20260506183005 | 10 | 275 | 22.5 | 32.2 | 0.00 | 0.00 | 0.00 | 31 | 1018.4 |
| 20260506182503 | 10 | 276 | 17.7 | 32.2 | 0.00 | 0.00 | 0.00 | 32 | 1018.5 |
| 20260506182004 | 10 | 277 | 14.5 | 20.9 | 0.00 | 0.00 | 0.00 | 32 | 1018.5 |
| 20260506181004 | 9 | 288 | 17.7 | 32.2 | 0.00 | 0.00 | 0.00 | 31 | 1018.6 |
| 20260506180503 | 10 | 305 | 17.7 | 30.6 | 0.00 | 0.00 | 0.00 | 32 | 1018.6 |
| 20260506180006 | 10 | 292 | 19.3 | 30.6 | 0.00 | 0.00 | 0.00 | 31 | 1018.7 |
| 20260506175504 | 11 | 282 | 17.7 | 29.0 | 0.00 | 0.00 | 0.00 | 31 | 1018.7 |
| 20260506175005 | 10 | 283 | 17.7 | 29.0 | 0.00 | 0.00 | 0.00 | 31 | 1018.7 |
| 20260506174504 | 10 | 291 | 19.3 | 29.0 | 0.00 | 0.00 | 0.00 | 30 | 1018.8 |
| 20260506173504 | 9 | 300 | 19.3 | 33.8 | 0.00 | 0.00 | 0.00 | 35 | 1018.9 |
| 20260506173005 | 8 | 293 | 14.5 | 33.8 | 0.00 | 0.00 | 0.00 | 33 | 1019.0 |
| 20260506172503 | 9 | 286 | 14.5 | 29.0 | 0.00 | 0.00 | 0.00 | 32 | 1018.9 |
| 20260506172005 | 8 | 282 | 22.5 | 32.2 | 0.00 | 0.00 | 0.00 | 35 | 1019.1 |
| 20260506171503 | 8 | 272 | 17.7 | 32.2 | 0.00 | 0.00 | 0.00 | 33 | 1019.1 |
| 20260506171004 | 10 | 275 | 14.5 | 24.1 | 0.00 | 0.00 | 0.00 | 35 | 1019.0 |
| 20260506170503 | 10 | 288 | 14.5 | 24.1 | 0.00 | 0.00 | 0.00 | 32 | 1019.1 |
| 20260506170005 | 9 | 290 | 14.5 | 20.9 | 0.00 | 0.00 | 0.00 | 32 | 1019.2 |
| 20260506165503 | 9 | 307 | 14.5 | 29.0 | 0.00 | 0.00 | 0.00 | 35 | 1019.2 |
| 20260506164004 | 8 | 284 | 17.7 | 27.4 | 0.00 | 0.00 | 0.00 | 34 | 1019.4 |
| 20260506163004 | 9 | 289 | 19.3 | 29.0 | 0.00 | 0.00 | 0.00 | 32 | 1019.4 |
| 20260506162503 | 9 | 278 | 17.7 | 30.6 | 0.00 | 0.00 | 0.00 | 33 | 1019.5 |
| 20260506162005 | 8 | 290 | 14.5 | 30.6 | 0.00 | 0.00 | 0.00 | 32 | 1019.5 |
| 20260506161504 | 10 | 316 | 17.7 | 30.6 | 0.00 | 0.00 | 0.00 | 35 | 1019.4 |
| 20260506160005 | 7 | 293 | 24.1 | 37.0 | 0.00 | 0.00 | 0.00 | 31 | 1019.4 |
| 20260506155005 | 8 | 309 | 19.3 | 30.6 | 0.00 | 0.00 | 0.00 | 35 | 1019.4 |
| 20260506154005 | 8 | 281 | 22.5 | 33.8 | 0.00 | 0.00 | 0.00 | 34 | 1019.5 |
| 20260506153503 | 8 | 292 | 17.7 | 29.0 | 0.00 | 0.00 | 0.00 | 37 | 1019.4 |
| 20260506153005 | 8 | 307 | 17.7 | 32.2 | 0.00 | 0.00 | 0.00 | 37 | 1019.5 |
| 20260506152503 | 8 | 297 | 22.5 | 32.2 | 0.00 | 0.00 | 0.00 | 35 | 1019.5 |
| 20260506152005 | 8 | 300 | 19.3 | 30.6 | 0.00 | 0.00 | 0.00 | 34 | 1019.4 |
| 20260506151503 | 7 | 306 | 17.7 | 29.0 | 0.00 | 0.00 | 0.00 | 35 | 1019.5 |
| 20260506150503 | 7 | 306 | 17.7 | 24.1 | 0.00 | 0.00 | 0.00 | 37 | 1019.4 |
| 20260506150005 | 7 | 319 | 12.9 | 24.1 | 0.00 | 0.00 | 0.00 | 38 | 1019.4 |
| 20260506145503 | 7 | 307 | 12.9 | 22.5 | 0.00 | 0.00 | 0.00 | 35 | 1019.4 |
| 20260506144503 | 7 | 291 | 19.3 | 24.1 | 0.00 | 0.00 | 0.00 | 41 | 1019.5 |
| 20260506144005 | 7 | 290 | 19.3 | 29.0 | 0.00 | 0.00 | 0.00 | 41 | 1019.5 |
| 20260506143503 | 7 | 289 | 22.5 | 29.0 | 0.00 | 0.00 | 0.00 | 44 | 1019.5 |
| 20260506143005 | 6 | 285 | 22.5 | 30.6 | 0.00 | 0.00 | 0.00 | 44 | 1019.5 |
| 20260506142503 | 6 | 282 | 22.5 | 30.6 | 0.00 | 0.00 | 0.00 | 43 | 1019.6 |
| 20260506142005 | 6 | 292 | 22.5 | 30.6 | 0.00 | 0.00 | 0.00 | 44 | 1019.5 |
| 20260506141504 | 6 | 298 | 19.3 | 30.6 | 0.00 | 0.00 | 0.00 | 46 | 1019.6 |
| 20260506141005 | 6 | 299 | 19.3 | 27.4 | 0.00 | 0.00 | 0.00 | 45 | 1019.6 |
| 20260506140503 | 5 | 292 | 22.5 | 29.0 | 0.00 | 0.00 | 0.00 | 46 | 1019.6 |
| 20260506135503 | 5 | 295 | 17.7 | 22.5 | 0.00 | 0.00 | 0.00 | 48 | 1019.7 |
| 20260506135005 | 5 | 293 | 19.3 | 29.0 | 0.00 | 0.00 | 0.00 | 51 | 1019.7 |
| 20260506134504 | 4 | 288 | 19.3 | 29.0 | 0.00 | 0.00 | 0.00 | 49 | 1019.7 |
| 20260506134005 | 4 | 285 | 17.7 | 22.5 | 0.00 | 0.00 | 0.00 | 52 | 1019.7 |
| 20260506133503 | 3 | 290 | 14.5 | 20.9 | 0.00 | 0.00 | 0.00 | 53 | 1019.6 |
| 20260506133005 | 3 | 290 | 17.7 | 22.5 | 0.00 | 0.00 | 0.00 | 54 | 1019.6 |
| 20260506132503 | 3 | 294 | 17.7 | 22.5 | 0.00 | 0.00 | 0.00 | 55 | 1019.6 |
| 20260506131005 | 2 | 291 | 14.5 | 20.9 | 0.00 | 0.00 | 0.00 | 60 | 1019.7 |
| 20260506130503 | 2 | 295 | 14.5 | 22.5 | 0.00 | 0.00 | 0.00 | 61 | 1019.7 |
| 20260506130005 | 1 | 302 | 14.5 | 22.5 | 0.00 | 0.00 | 0.00 | 63 | 1019.6 |
| 20260506125503 | 1 | 304 | 12.9 | 22.5 | 0.00 | 0.00 | 0.00 | 64 | 1019.6 |
| 20260506125005 | 1 | 305 | 12.9 | 22.5 | 0.00 | 0.00 | 0.00 | 66 | 1019.5 |
| 20260506124503 | 0 | 299 | 12.9 | 22.5 | 0.00 | 0.00 | 0.00 | 67 | 1019.5 |
| 20260506124004 | 0 | 274 | 11.3 | 19.3 | 0.00 | 0.00 | 0.00 | 67 | 1019.4 |
| 20260506123503 | 0 | 262 | 8.0 | 19.3 | 0.00 | 0.00 | 0.00 | 66 | 1019.3 |
| 20260506123005 | 0 | 264 | 6.4 | 17.7 | 0.00 | 0.00 | 0.00 | 67 | 1019.2 |
| 20260506122503 | 0 | 263 | 6.4 | 12.9 | 0.00 | 0.00 | 0.00 | 70 | 1019.1 |
| 20260506122004 | 0 | 264 | 6.4 | 12.9 | 0.00 | 0.00 | 0.00 | 70 | 1019.1 |
| 20260506121503 | 0 | 274 | 8.0 | 12.9 | 0.00 | 0.00 | 0.00 | 71 | 1018.9 |
| 20260506121005 | 0 | 276 | 8.0 | 12.9 | 0.00 | 0.00 | 0.00 | 71 | 1018.9 |
| 20260506120503 | 0 | 283 | 6.4 | 11.3 | 0.00 | 0.00 | 0.00 | 72 | 1018.9 |
| 20260506120005 | -1 | 299 | 6.4 | 9.7 | 0.00 | 0.00 | 0.00 | 73 | 1018.9 |
| 20260506115504 | -1 | 304 | 4.8 | 8.0 | 0.00 | 0.00 | 0.00 | 74 | 1018.8 |
| 20260506115005 | -1 | 303 | 6.4 | 11.3 | 0.00 | 0.00 | 0.00 | 74 | 1018.8 |
| 20260506114503 | -1 | 290 | 6.4 | 11.3 | 0.00 | 0.00 | 0.00 | 73 | 1018.7 |
| 20260506114005 | -1 | 283 | 8.0 | 17.7 | 0.00 | 0.00 | 0.00 | 73 | 1018.7 |
| 20260506113504 | -1 | 282 | 8.0 | 17.7 | 0.00 | 0.00 | 0.00 | 73 | 1018.6 |
| 20260506113005 | -1 | 270 | 8.0 | 12.9 | 0.00 | 0.00 | 0.00 | 73 | 1018.6 |
| 20260506112503 | 0 | 262 | 11.3 | 12.9 | 0.00 | 0.00 | 0.00 | 73 | 1018.5 |
| 20260506112005 | -1 | 259 | 11.3 | 12.9 | 0.00 | 0.00 | 0.00 | 74 | 1018.4 |
| 20260506111503 | 0 | 253 | 8.0 | 12.9 | 0.00 | 0.00 | 0.00 | 73 | 1018.3 |
| 20260506110503 | 0 | 259 | 8.0 | 16.1 | 0.00 | 0.00 | 0.00 | 73 | 1018.3 |
| 20260506110005 | 0 | 267 | 11.3 | 16.1 | 0.00 | 0.00 | 0.00 | 73 | 1018.3 |
| 20260506105503 | -1 | 273 | 11.3 | 12.9 | 0.00 | 0.00 | 0.00 | 73 | 1018.1 |
| 20260506105004 | 0 | 270 | 11.3 | 12.9 | 0.00 | 0.00 | 0.00 | 72 | 1018.1 |